Hourly Data Report for October 05, 2016

All times are specified in Local Standard Time (LST). Add 1 hour to adjust for Daylight Saving Time where and when it is observed.

KAMLOOPS A
BRITISH COLUMBIA

50°42'09.000" N
120°26'55.000" W
345.30 m
1163781
71887
YKA

Download Data

Hourly Data (October 2016)
Hourly Data Report for October 5, 2016
Temp Definition
°C
Dew Point Temp Definition
°C
Rel Hum Definition
%
Wind Dir Definition
10's deg

Wind Spd Definition
km/h
Visibility Definition
km
Stn Press Definition
kPa
Hmdx Definition


Wind Chill Definition


Weather Definition


TIME
00:00 Legend Double Dagger 6.3 4.0 85 3 4 64.4 97.16     LegendNANA
01:00 Legend Double Dagger 6.9 4.9 87 11 3 64.4 97.20     Mainly Clear
02:00 Legend Double Dagger 5.0 3.7 91 36 2 64.4 97.22     LegendNANA
03:00 Legend Double Dagger 3.9 3.0 94 36 1 64.4 97.27     LegendNANA
04:00 Legend Double Dagger 4.1 2.9 92 29 5 64.4 97.31     Mainly Clear
05:00 Legend Double Dagger 4.2 3.3 94 36 2 64.4 97.36     LegendNANA
06:00 Legend Double Dagger 4.0 2.8 92 0 1 64.4 97.39     LegendNANA
07:00 Legend Double Dagger 4.6 3.4 92 10 4 64.4 97.44     Mostly Cloudy
08:00 Legend Double Dagger 6.4 4.6 88 36 2 64.4 97.47     LegendNANA
09:00 Legend Double Dagger 8.8 5.2 78 27 9 64.4 97.45     LegendNANA
10:00 Legend Double Dagger 10.1 4.7 69 29 9 64.4 97.43     Mainly Clear
11:00 Legend Double Dagger 11.7 5.2 64 28 8 64.4 97.38     LegendNANA
12:00 Legend Double Dagger 12.8 4.8 58 29 7 64.4 97.32     LegendNANA
13:00 Legend Double Dagger 13.5 6.0 60 28 14 64.4 97.27     Mainly Clear
14:00 Legend Double Dagger 14.3 6.2 58 28 17 64.4 97.24     LegendNANA
15:00 Legend Double Dagger 13.3 6.0 61 25 3 64.4 97.22     LegendNANA
16:00 Legend Double Dagger 13.8 6.5 61 31 6 64.4 97.23     Mainly Clear
17:00 Legend Double Dagger 12.2 6.5 68 30 6 64.4 97.24     LegendNANA
18:00 Legend Double Dagger 11.2 6.4 72 21 3 64.4 97.28     LegendNANA
19:00 Legend Double Dagger 9.0 5.4 78 30 4 64.4 97.34     Mainly Clear
20:00 Legend Double Dagger 9.4 6.0 79 36 1 64.4 97.36     LegendNANA
21:00 Legend Double Dagger 7.3 4.8 84 28 3 64.4 97.39     LegendNANA
22:00 Legend Double Dagger 8.7 5.5 80 32 7 64.4 97.46     Mostly Cloudy
23:00 Legend Double Dagger 10.3 6.5 77 25 13 64.4 97.52     Rain Showers

Notes on Data Quality.

Legend

  • E = Estimated
  • M = Missing
  • NA = Not Available
  • ‡ = Partner data that is not subject to review by the National Climate Archives
Date modified: